owner,sensor,date,latitude,longitude,vertical_datum,wind_speed,wind_to_direction,wind_speed_of_gust,qcFlag 
DISL,ioos:station:DISL:MBLA:1,2012-04-01T00:00:00Z,30.4367,-88.0117,14.2,7.37,225.7,-9999.0,'1111122,1111122,1111122' 
DISL,ioos:station:DISL:MBLA:1,2012-04-01T00:30:00Z,30.4367,-88.0117,14.2,7.39,220.1,-9999.0,'1111122,1111122,1111122' 
DISL,ioos:station:DISL:MBLA:1,2012-04-01T01:00:00Z,30.4367,-88.0117,14.2,7.24,222.2,-9999.0,'1111122,1111122,1111122' 
DISL,ioos:station:DISL:MBLA:1,2012-04-01T01:30:00Z,30.4367,-88.0117,14.2,7.13,219.7,-9999.0,'1111122,1111122,1111122' 
DISL,ioos:station:DISL:MBLA:1,2012-04-01T02:00:00Z,30.4367,-88.0117,14.2,7.53,224.7,-9999.0,'1111122,1111122,1111122' 
DISL,ioos:station:DISL:MBLA:1,2012-04-01T02:30:00Z,30.4367,-88.0117,14.2,7.42,226.1,-9999.0,'1111122,1111122,1111122' 
DISL,ioos:station:DISL:MBLA:1,2012-04-01T03:00:00Z,30.4367,-88.0117,14.2,6.62,225.7,-9999.0,'1111122,1111122,1111122' 
DISL,ioos:station:DISL:MBLA:1,2012-04-01T03:30:00Z,30.4367,-88.0117,14.2,6.64,224.9,-9999.0,'1111122,1111122,1111122' 
DISL,ioos:station:DISL:MBLA:1,2012-04-01T04:00:00Z,30.4367,-88.0117,14.2,6.8,227.3,-9999.0,'1111122,1111122,1111122' 
DISL,ioos:station:DISL:MBLA:1,2012-04-01T04:30:00Z,30.4367,-88.0117,14.2,5.71,227.9,-9999.0,'1111122,1111122,1111122' 
DISL,ioos:station:DISL:MBLA:1,2012-04-01T05:00:00Z,30.4367,-88.0117,14.2,4.9,232.2,-9999.0,'1111122,1111122,1111122' 
DISL,ioos:station:DISL:MBLA:1,2012-04-01T05:30:00Z,30.4367,-88.0117,14.2,3.74,224.5,-9999.0,'1111122,1111122,1111122' 
DISL,ioos:station:DISL:MBLA:1,2012-04-01T06:00:00Z,30.4367,-88.0117,14.2,3.78,226.1,-9999.0,'1111122,1111122,1111122' 
DISL,ioos:station:DISL:MBLA:1,2012-04-01T06:30:00Z,30.4367,-88.0117,14.2,4.63,234.8,-9999.0,'1111122,1111122,1111122' 
DISL,ioos:station:DISL:MBLA:1,2012-04-01T07:00:00Z,30.4367,-88.0117,14.2,5.72,220.0,-9999.0,'1111122,1111122,1111122' 
DISL,ioos:station:DISL:MBLA:1,2012-04-01T07:30:00Z,30.4367,-88.0117,14.2,5.54,227.9,-9999.0,'1111122,1111122,1111122' 
DISL,ioos:station:DISL:MBLA:1,2012-04-01T08:00:00Z,30.4367,-88.0117,14.2,5.44,234.4,-9999.0,'1111122,1111122,1111122' 
DISL,ioos:station:DISL:MBLA:1,2012-04-01T08:30:00Z,30.4367,-88.0117,14.2,5.58,229.1,-9999.0,'1111122,1111122,1111122' 
DISL,ioos:station:DISL:MBLA:1,2012-04-01T09:00:00Z,30.4367,-88.0117,14.2,4.94,251.3,-9999.0,'1111122,1111122,1111122' 
DISL,ioos:station:DISL:MBLA:1,2012-04-01T09:30:00Z,30.4367,-88.0117,14.2,5.13,261.8,-9999.0,'1111122,1111122,1111122' 
DISL,ioos:station:DISL:MBLA:1,2012-04-01T10:00:00Z,30.4367,-88.0117,14.2,5.89,263.0,-9999.0,'1111122,1111122,1111122' 
DISL,ioos:station:DISL:MBLA:1,2012-04-01T10:30:00Z,30.4367,-88.0117,14.2,4.75,269.2,-9999.0,'1111122,1111122,1111122' 
DISL,ioos:station:DISL:MBLA:1,2012-04-01T11:00:00Z,30.4367,-88.0117,14.2,4.06,269.2,-9999.0,'1111122,1111122,1111122' 
DISL,ioos:station:DISL:MBLA:1,2012-04-01T11:30:00Z,30.4367,-88.0117,14.2,3.29,282.8,-9999.0,'1111122,1111122,1111122' 
DISL,ioos:station:DISL:MBLA:1,2012-04-01T12:00:00Z,30.4367,-88.0117,14.2,3.8,281.3,-9999.0,'1111122,1111122,1111122' 
DISL,ioos:station:DISL:MBLA:1,2012-04-01T12:30:00Z,30.4367,-88.0117,14.2,4.71,291.1,-9999.0,'1111122,1111122,1111122' 
DISL,ioos:station:DISL:MBLA:1,2012-04-01T13:00:00Z,30.4367,-88.0117,14.2,3.29,327.3,-9999.0,'1111122,1111122,1111122' 
DISL,ioos:station:DISL:MBLA:1,2012-04-01T13:30:00Z,30.4367,-88.0117,14.2,2.65,324.8,-9999.0,'1111122,1111122,1111122' 
DISL,ioos:station:DISL:MBLA:1,2012-04-01T14:00:00Z,30.4367,-88.0117,14.2,2.2,315.7,-9999.0,'1111122,1111122,1111122' 
DISL,ioos:station:DISL:MBLA:1,2012-04-01T14:30:00Z,30.4367,-88.0117,14.2,1.51,334.5,-9999.0,'1111122,1111122,1111122' 
DISL,ioos:station:DISL:MBLA:1,2012-04-01T15:00:00Z,30.4367,-88.0117,14.2,1.15,2.735,-9999.0,'1111122,1111122,1111122' 
DISL,ioos:station:DISL:MBLA:1,2012-04-01T15:30:00Z,30.4367,-88.0117,14.2,0.74,72.72,-9999.0,'1111122,1111122,1111122' 
DISL,ioos:station:DISL:MBLA:1,2012-04-01T16:00:00Z,30.4367,-88.0117,14.2,0.66,126.7,-9999.0,'1111122,1111122,1111122' 
DISL,ioos:station:DISL:MBLA:1,2012-04-01T16:30:00Z,30.4367,-88.0117,14.2,2.18,155.3,-9999.0,'1111122,1111122,1111122' 
DISL,ioos:station:DISL:MBLA:1,2012-04-01T17:00:00Z,30.4367,-88.0117,14.2,5.59,174.4,-9999.0,'1111122,1111122,1111122' 
DISL,ioos:station:DISL:MBLA:1,2012-04-01T17:30:00Z,30.4367,-88.0117,14.2,3.98,181.0,-9999.0,'1111122,1111122,1111122' 
DISL,ioos:station:DISL:MBLA:1,2012-04-01T18:00:00Z,30.4367,-88.0117,14.2,3.98,189.5,-9999.0,'1111122,1111122,1111122' 
DISL,ioos:station:DISL:MBLA:1,2012-04-01T18:30:00Z,30.4367,-88.0117,14.2,6.33,191.1,-9999.0,'1111122,1111122,1111122' 
DISL,ioos:station:DISL:MBLA:1,2012-04-01T19:00:00Z,30.4367,-88.0117,14.2,7.11,188.8,-9999.0,'1111122,1111122,1111122' 
DISL,ioos:station:DISL:MBLA:1,2012-04-01T19:30:00Z,30.4367,-88.0117,14.2,6.99,195.4,-9999.0,'1111122,1111122,1111122' 
DISL,ioos:station:DISL:MBLA:1,2012-04-01T20:00:00Z,30.4367,-88.0117,14.2,6.62,193.8,-9999.0,'1111122,1111122,1111122' 
DISL,ioos:station:DISL:MBLA:1,2012-04-01T20:30:00Z,30.4367,-88.0117,14.2,6.52,198.6,-9999.0,'1111122,1111122,1111122' 
DISL,ioos:station:DISL:MBLA:1,2012-04-01T21:00:00Z,30.4367,-88.0117,14.2,7.16,193.3,-9999.0,'1111122,1111122,1111122' 
DISL,ioos:station:DISL:MBLA:1,2012-04-01T21:30:00Z,30.4367,-88.0117,14.2,8.11,201.8,-9999.0,'1111122,1111122,1111122' 
DISL,ioos:station:DISL:MBLA:1,2012-04-01T22:00:00Z,30.4367,-88.0117,14.2,6.59,205.9,-9999.0,'1111122,1111122,1111122' 
DISL,ioos:station:DISL:MBLA:1,2012-04-01T22:30:00Z,30.4367,-88.0117,14.2,7.07,204.2,-9999.0,'1111122,1111122,1111122' 
DISL,ioos:station:DISL:MBLA:1,2012-04-01T23:00:00Z,30.4367,-88.0117,14.2,6.01,206.3,-9999.0,'1111122,1111122,1111122' 
DISL,ioos:station:DISL:MBLA:1,2012-04-01T23:30:00Z,30.4367,-88.0117,14.2,5.78,205.7,-9999.0,'1111122,1111122,1111122' 
DISL,ioos:station:DISL:MBLA:1,2012-04-02T00:00:00Z,30.4367,-88.0117,14.2,6.02,203.0,-9999.0,'1111122,1111122,1111122' 
DISL,ioos:station:DISL:MBLA:1,2012-04-02T00:30:00Z,30.4367,-88.0117,14.2,5.64,196.2,-9999.0,'1111122,1111122,1111122' 
DISL,ioos:station:DISL:MBLA:1,2012-04-02T01:00:00Z,30.4367,-88.0117,14.2,7.37,191.0,-9999.0,'1111122,1111122,1111122' 
DISL,ioos:station:DISL:MBLA:1,2012-04-02T01:30:00Z,30.4367,-88.0117,14.2,7.46,188.7,-9999.0,'1111122,1111122,1111122' 
DISL,ioos:station:DISL:MBLA:1,2012-04-02T02:00:00Z,30.4367,-88.0117,14.2,8.8,191.6,-9999.0,'1111122,1111122,1111122' 
DISL,ioos:station:DISL:MBLA:1,2012-04-02T02:30:00Z,30.4367,-88.0117,14.2,8.93,196.3,-9999.0,'1111122,1111122,1111122' 
DISL,ioos:station:DISL:MBLA:1,2012-04-02T03:00:00Z,30.4367,-88.0117,14.2,8.81,196.0,-9999.0,'1111122,1111122,1111122' 
DISL,ioos:station:DISL:MBLA:1,2012-04-02T03:30:00Z,30.4367,-88.0117,14.2,8.07,193.4,-9999.0,'1111122,1111122,1111122' 
DISL,ioos:station:DISL:MBLA:1,2012-04-02T04:00:00Z,30.4367,-88.0117,14.2,7.99,197.5,-9999.0,'1111122,1111122,1111122' 
DISL,ioos:station:DISL:MBLA:1,2012-04-02T04:30:00Z,30.4367,-88.0117,14.2,7.85,194.4,-9999.0,'1111122,1111122,1111122' 
DISL,ioos:station:DISL:MBLA:1,2012-04-02T05:00:00Z,30.4367,-88.0117,14.2,8.23,189.4,-9999.0,'1111122,1111122,1111122' 
DISL,ioos:station:DISL:MBLA:1,2012-04-02T05:30:00Z,30.4367,-88.0117,14.2,8.86,191.1,-9999.0,'1111122,1111122,1111122' 
DISL,ioos:station:DISL:MBLA:1,2012-04-02T06:00:00Z,30.4367,-88.0117,14.2,7.46,197.7,-9999.0,'1111122,1111122,1111122' 
DISL,ioos:station:DISL:MBLA:1,2012-04-02T06:30:00Z,30.4367,-88.0117,14.2,8.54,201.1,-9999.0,'1111122,1111122,1111122' 
DISL,ioos:station:DISL:MBLA:1,2012-04-02T07:00:00Z,30.4367,-88.0117,14.2,7.29,199.5,-9999.0,'1111122,1111122,1111122' 
DISL,ioos:station:DISL:MBLA:1,2012-04-02T07:30:00Z,30.4367,-88.0117,14.2,7.52,195.0,-9999.0,'1111122,1111122,1111122' 
DISL,ioos:station:DISL:MBLA:1,2012-04-02T08:00:00Z,30.4367,-88.0117,14.2,7.83,201.7,-9999.0,'1111122,1111122,1111122' 
DISL,ioos:station:DISL:MBLA:1,2012-04-02T08:30:00Z,30.4367,-88.0117,14.2,7.24,203.5,-9999.0,'1111122,1111122,1111122' 
DISL,ioos:station:DISL:MBLA:1,2012-04-02T09:00:00Z,30.4367,-88.0117,14.2,7.87,200.1,-9999.0,'1111122,1111122,1111122' 
DISL,ioos:station:DISL:MBLA:1,2012-04-02T09:30:00Z,30.4367,-88.0117,14.2,7.23,199.3,-9999.0,'1111122,1111122,1111122' 
DISL,ioos:station:DISL:MBLA:1,2012-04-02T10:00:00Z,30.4367,-88.0117,14.2,6.47,193.4,-9999.0,'1111122,1111122,1111122' 
DISL,ioos:station:DISL:MBLA:1,2012-04-02T10:30:00Z,30.4367,-88.0117,14.2,5.97,199.0,-9999.0,'1111122,1111122,1111122' 
DISL,ioos:station:DISL:MBLA:1,2012-04-02T11:00:00Z,30.4367,-88.0117,14.2,5.03,192.7,-9999.0,'1111122,1111122,1111122' 
DISL,ioos:station:DISL:MBLA:1,2012-04-02T11:30:00Z,30.4367,-88.0117,14.2,4.58,192.3,-9999.0,'1111122,1111122,1111122' 
DISL,ioos:station:DISL:MBLA:1,2012-04-02T12:00:00Z,30.4367,-88.0117,14.2,3.45,178.7,-9999.0,'1111122,1111122,1111122' 
DISL,ioos:station:DISL:MBLA:1,2012-04-02T12:30:00Z,30.4367,-88.0117,14.2,3.33,173.8,-9999.0,'1111122,1111122,1111122' 
DISL,ioos:station:DISL:MBLA:1,2012-04-02T13:00:00Z,30.4367,-88.0117,14.2,2.76,183.4,-9999.0,'1111122,1111122,1111122' 
DISL,ioos:station:DISL:MBLA:1,2012-04-02T13:30:00Z,30.4367,-88.0117,14.2,3.13,189.4,-9999.0,'1111122,1111122,1111122' 
DISL,ioos:station:DISL:MBLA:1,2012-04-02T14:00:00Z,30.4367,-88.0117,14.2,3.2,176.1,-9999.0,'1111122,1111122,1111122' 
DISL,ioos:station:DISL:MBLA:1,2012-04-02T14:30:00Z,30.4367,-88.0117,14.2,3.09,161.2,-9999.0,'1111122,1111122,1111122' 
DISL,ioos:station:DISL:MBLA:1,2012-04-02T15:00:00Z,30.4367,-88.0117,14.2,3.63,159.3,-9999.0,'1111122,1111122,1111122' 
DISL,ioos:station:DISL:MBLA:1,2012-04-02T15:30:00Z,30.4367,-88.0117,14.2,4.22,150.4,-9999.0,'1111122,1111122,1111122' 
DISL,ioos:station:DISL:MBLA:1,2012-04-02T16:00:00Z,30.4367,-88.0117,14.2,4.5,132.4,-9999.0,'1111122,1111122,1111122' 
DISL,ioos:station:DISL:MBLA:1,2012-04-02T16:30:00Z,30.4367,-88.0117,14.2,4.59,140.8,-9999.0,'1111122,1111122,1111122' 
DISL,ioos:station:DISL:MBLA:1,2012-04-02T17:00:00Z,30.4367,-88.0117,14.2,4.32,144.7,-9999.0,'1111122,1111122,1111122' 
DISL,ioos:station:DISL:MBLA:1,2012-04-02T17:30:00Z,30.4367,-88.0117,14.2,4.34,154.6,-9999.0,'1111122,1111122,1111122' 
DISL,ioos:station:DISL:MBLA:1,2012-04-02T18:00:00Z,30.4367,-88.0117,14.2,5.42,164.8,-9999.0,'1111122,1111122,1111122' 
DISL,ioos:station:DISL:MBLA:1,2012-04-02T18:30:00Z,30.4367,-88.0117,14.2,5.72,160.8,-9999.0,'1111122,1111122,1111122' 
DISL,ioos:station:DISL:MBLA:1,2012-04-02T19:00:00Z,30.4367,-88.0117,14.2,7.05,164.9,-9999.0,'1111122,1111122,1111122' 
DISL,ioos:station:DISL:MBLA:1,2012-04-02T19:30:00Z,30.4367,-88.0117,14.2,6.94,160.8,-9999.0,'1111122,1111122,1111122' 
DISL,ioos:station:DISL:MBLA:1,2012-04-02T20:00:00Z,30.4367,-88.0117,14.2,8.81,166.8,-9999.0,'1111122,1111122,1111122' 
DISL,ioos:station:DISL:MBLA:1,2012-04-02T20:30:00Z,30.4367,-88.0117,14.2,9.19,160.5,-9999.0,'1111122,1111122,1111122' 
DISL,ioos:station:DISL:MBLA:1,2012-04-02T21:00:00Z,30.4367,-88.0117,14.2,9.48,162.7,-9999.0,'1111122,1111122,1111122' 
DISL,ioos:station:DISL:MBLA:1,2012-04-02T21:30:00Z,30.4367,-88.0117,14.2,8.49,168.1,-9999.0,'1111122,1111122,1111122' 
DISL,ioos:station:DISL:MBLA:1,2012-04-02T22:00:00Z,30.4367,-88.0117,14.2,8.02,160.0,-9999.0,'1111122,1111122,1111122' 
DISL,ioos:station:DISL:MBLA:1,2012-04-02T22:30:00Z,30.4367,-88.0117,14.2,7.4,158.7,-9999.0,'1111122,1111122,1111122' 
DISL,ioos:station:DISL:MBLA:1,2012-04-02T23:00:00Z,30.4367,-88.0117,14.2,7.31,157.9,-9999.0,'1111122,1111122,1111122' 
DISL,ioos:station:DISL:MBLA:1,2012-04-02T23:30:00Z,30.4367,-88.0117,14.2,6.57,161.2,-9999.0,'1111122,1111122,1111122' 
DISL,ioos:station:DISL:MBLA:1,2012-04-03T00:00:00Z,30.4367,-88.0117,14.2,5.27,157.3,-9999.0,'1111122,1111122,1111122' 
DISL,ioos:station:DISL:MBLA:1,2012-04-03T00:30:00Z,30.4367,-88.0117,14.2,4.43,138.4,-9999.0,'1111122,1111122,1111122' 
DISL,ioos:station:DISL:MBLA:1,2012-04-03T01:00:00Z,30.4367,-88.0117,14.2,4.39,133.7,-9999.0,'1111122,1111122,1111122' 
DISL,ioos:station:DISL:MBLA:1,2012-04-03T01:30:00Z,30.4367,-88.0117,14.2,4.63,127.0,-9999.0,'1111122,1111122,1111122' 
DISL,ioos:station:DISL:MBLA:1,2012-04-03T02:00:00Z,30.4367,-88.0117,14.2,4.64,110.7,-9999.0,'1111122,1111122,1111122' 
DISL,ioos:station:DISL:MBLA:1,2012-04-03T02:30:00Z,30.4367,-88.0117,14.2,3.09,79.2,-9999.0,'1111122,1111122,1111122' 
DISL,ioos:station:DISL:MBLA:1,2012-04-03T03:00:00Z,30.4367,-88.0117,14.2,4.29,161.7,-9999.0,'1111122,1111122,1111122' 
DISL,ioos:station:DISL:MBLA:1,2012-04-03T03:30:00Z,30.4367,-88.0117,14.2,13.31,336.9,-9999.0,'1111122,1111122,1111122' 
DISL,ioos:station:DISL:MBLA:1,2012-04-03T04:00:00Z,30.4367,-88.0117,14.2,11.88,338.2,-9999.0,'1111122,1111122,1111122' 
DISL,ioos:station:DISL:MBLA:1,2012-04-03T04:30:00Z,30.4367,-88.0117,14.2,10.22,345.6,-9999.0,'1111122,1111122,1111122' 
DISL,ioos:station:DISL:MBLA:1,2012-04-03T05:00:00Z,30.4367,-88.0117,14.2,7.08,7.434,-9999.0,'1111122,1111122,1111122' 
DISL,ioos:station:DISL:MBLA:1,2012-04-03T05:30:00Z,30.4367,-88.0117,14.2,4.7,7.35,-9999.0,'1111122,1111122,1111122' 
DISL,ioos:station:DISL:MBLA:1,2012-04-03T06:00:00Z,30.4367,-88.0117,14.2,4.37,230.5,-9999.0,'1111122,1111122,1111122' 
DISL,ioos:station:DISL:MBLA:1,2012-04-03T06:30:00Z,30.4367,-88.0117,14.2,4.78,294.6,-9999.0,'1111122,1111122,1111122' 
DISL,ioos:station:DISL:MBLA:1,2012-04-03T07:00:00Z,30.4367,-88.0117,14.2,10.57,271.4,-9999.0,'1111122,1111122,1111122' 
DISL,ioos:station:DISL:MBLA:1,2012-04-03T07:30:00Z,30.4367,-88.0117,14.2,8.35,307.2,-9999.0,'1111122,1111122,1111122' 
DISL,ioos:station:DISL:MBLA:1,2012-04-03T08:00:00Z,30.4367,-88.0117,14.2,9.18,4.547,-9999.0,'1111122,1111122,1111122' 
DISL,ioos:station:DISL:MBLA:1,2012-04-03T08:30:00Z,30.4367,-88.0117,14.2,7.15,7.487,-9999.0,'1111122,1111122,1111122' 
DISL,ioos:station:DISL:MBLA:1,2012-04-03T09:00:00Z,30.4367,-88.0117,14.2,3.76,324.5,-9999.0,'1111122,1111122,1111122' 
DISL,ioos:station:DISL:MBLA:1,2012-04-03T09:30:00Z,30.4367,-88.0117,14.2,1.65,48.44,-9999.0,'1111122,1111122,1111122' 
DISL,ioos:station:DISL:MBLA:1,2012-04-03T10:00:00Z,30.4367,-88.0117,14.2,5.31,110.7,-9999.0,'1111122,1111122,1111122' 
DISL,ioos:station:DISL:MBLA:1,2012-04-03T10:30:00Z,30.4367,-88.0117,14.2,6.92,98.5,-9999.0,'1111122,1111122,1111122' 
DISL,ioos:station:DISL:MBLA:1,2012-04-03T11:00:00Z,30.4367,-88.0117,14.2,10.89,109.5,-9999.0,'1111122,1111122,1111122' 
DISL,ioos:station:DISL:MBLA:1,2012-04-03T11:30:00Z,30.4367,-88.0117,14.2,9.46,104.0,-9999.0,'1111122,1111122,1111122' 
DISL,ioos:station:DISL:MBLA:1,2012-04-03T12:00:00Z,30.4367,-88.0117,14.2,8.96,108.9,-9999.0,'1111122,1111122,1111122' 
DISL,ioos:station:DISL:MBLA:1,2012-04-03T12:30:00Z,30.4367,-88.0117,14.2,8.75,146.7,-9999.0,'1111122,1111122,1111122' 
DISL,ioos:station:DISL:MBLA:1,2012-04-03T13:00:00Z,30.4367,-88.0117,14.2,8.52,152.3,-9999.0,'1111122,1111122,1111122' 
DISL,ioos:station:DISL:MBLA:1,2012-04-03T13:30:00Z,30.4367,-88.0117,14.2,7.1,145.9,-9999.0,'1111122,1111122,1111122' 
DISL,ioos:station:DISL:MBLA:1,2012-04-03T14:00:00Z,30.4367,-88.0117,14.2,5.21,146.3,-9999.0,'1111122,1111122,1111122' 
DISL,ioos:station:DISL:MBLA:1,2012-04-03T14:30:00Z,30.4367,-88.0117,14.2,5.01,151.5,-9999.0,'1111122,1111122,1111122' 
DISL,ioos:station:DISL:MBLA:1,2012-04-03T15:00:00Z,30.4367,-88.0117,14.2,5.83,152.0,-9999.0,'1111122,1111122,1111122' 
DISL,ioos:station:DISL:MBLA:1,2012-04-03T15:30:00Z,30.4367,-88.0117,14.2,3.49,165.1,-9999.0,'1111122,1111122,1111122' 
DISL,ioos:station:DISL:MBLA:1,2012-04-03T16:00:00Z,30.4367,-88.0117,14.2,4.0,176.5,-9999.0,'1111122,1111122,1111122' 
DISL,ioos:station:DISL:MBLA:1,2012-04-03T16:30:00Z,30.4367,-88.0117,14.2,3.49,169.7,-9999.0,'1111122,1111122,1111122' 
DISL,ioos:station:DISL:MBLA:1,2012-04-03T17:00:00Z,30.4367,-88.0117,14.2,2.8,172.9,-9999.0,'1111122,1111122,1111122' 
DISL,ioos:station:DISL:MBLA:1,2012-04-03T17:30:00Z,30.4367,-88.0117,14.2,2.79,165.8,-9999.0,'1111122,1111122,1111122' 
DISL,ioos:station:DISL:MBLA:1,2012-04-03T18:00:00Z,30.4367,-88.0117,14.2,3.01,158.6,-9999.0,'1111122,1111122,1111122' 
DISL,ioos:station:DISL:MBLA:1,2012-04-03T18:30:00Z,30.4367,-88.0117,14.2,4.16,156.8,-9999.0,'1111122,1111122,1111122' 
DISL,ioos:station:DISL:MBLA:1,2012-04-03T19:00:00Z,30.4367,-88.0117,14.2,4.03,164.6,-9999.0,'1111122,1111122,1111122' 
DISL,ioos:station:DISL:MBLA:1,2012-04-03T19:30:00Z,30.4367,-88.0117,14.2,5.39,162.2,-9999.0,'1111122,1111122,1111122' 
DISL,ioos:station:DISL:MBLA:1,2012-04-03T20:00:00Z,30.4367,-88.0117,14.2,5.36,165.4,-9999.0,'1111122,1111122,1111122' 
DISL,ioos:station:DISL:MBLA:1,2012-04-03T20:30:00Z,30.4367,-88.0117,14.2,6.27,169.9,-9999.0,'1111122,1111122,1111122' 
DISL,ioos:station:DISL:MBLA:1,2012-04-03T21:00:00Z,30.4367,-88.0117,14.2,6.14,173.0,-9999.0,'1111122,1111122,1111122' 
DISL,ioos:station:DISL:MBLA:1,2012-04-03T21:30:00Z,30.4367,-88.0117,14.2,6.32,168.0,-9999.0,'1111122,1111122,1111122' 
DISL,ioos:station:DISL:MBLA:1,2012-04-03T22:00:00Z,30.4367,-88.0117,14.2,5.09,162.9,-9999.0,'1111122,1111122,1111122' 
DISL,ioos:station:DISL:MBLA:1,2012-04-03T22:30:00Z,30.4367,-88.0117,14.2,6.42,139.7,-9999.0,'1111122,1111122,1111122' 
DISL,ioos:station:DISL:MBLA:1,2012-04-03T23:00:00Z,30.4367,-88.0117,14.2,7.23,142.1,-9999.0,'1111122,1111122,1111122' 
DISL,ioos:station:DISL:MBLA:1,2012-04-03T23:30:00Z,30.4367,-88.0117,14.2,6.07,145.6,-9999.0,'1111122,1111122,1111122' 
DISL,ioos:station:DISL:MBLA:1,2012-04-04T00:00:00Z,30.4367,-88.0117,14.2,5.2,164.7,-9999.0,'1111122,1111122,1111122' 
DISL,ioos:station:DISL:MBLA:1,2012-04-04T00:30:00Z,30.4367,-88.0117,14.2,5.77,153.5,-9999.0,'1111122,1111122,1111122' 
DISL,ioos:station:DISL:MBLA:1,2012-04-04T01:00:00Z,30.4367,-88.0117,14.2,5.44,139.0,-9999.0,'1111122,1111122,1111122' 
DISL,ioos:station:DISL:MBLA:1,2012-04-04T01:30:00Z,30.4367,-88.0117,14.2,5.83,137.6,-9999.0,'1111122,1111122,1111122' 
DISL,ioos:station:DISL:MBLA:1,2012-04-04T02:00:00Z,30.4367,-88.0117,14.2,5.86,133.6,-9999.0,'1111122,1111122,1111122' 
DISL,ioos:station:DISL:MBLA:1,2012-04-04T02:30:00Z,30.4367,-88.0117,14.2,6.37,132.4,-9999.0,'1111122,1111122,1111122' 
DISL,ioos:station:DISL:MBLA:1,2012-04-04T03:00:00Z,30.4367,-88.0117,14.2,6.32,131.6,-9999.0,'1111122,1111122,1111122' 
DISL,ioos:station:DISL:MBLA:1,2012-04-04T03:30:00Z,30.4367,-88.0117,14.2,5.95,125.0,-9999.0,'1111122,1111122,1111122' 
DISL,ioos:station:DISL:MBLA:1,2012-04-04T04:00:00Z,30.4367,-88.0117,14.2,5.07,120.2,-9999.0,'1111122,1111122,1111122' 
DISL,ioos:station:DISL:MBLA:1,2012-04-04T04:30:00Z,30.4367,-88.0117,14.2,5.41,137.9,-9999.0,'1111122,1111122,1111122' 
DISL,ioos:station:DISL:MBLA:1,2012-04-04T05:00:00Z,30.4367,-88.0117,14.2,4.1,128.1,-9999.0,'1111122,1111122,1111122' 
DISL,ioos:station:DISL:MBLA:1,2012-04-04T05:30:00Z,30.4367,-88.0117,14.2,3.39,104.0,-9999.0,'1111122,1111122,1111122' 
DISL,ioos:station:DISL:MBLA:1,2012-04-04T06:00:00Z,30.4367,-88.0117,14.2,1.52,65.14,-9999.0,'1111122,1111122,1111122' 
DISL,ioos:station:DISL:MBLA:1,2012-04-04T06:30:00Z,30.4367,-88.0117,14.2,1.79,24.5,-9999.0,'1111122,1111122,1111122' 
DISL,ioos:station:DISL:MBLA:1,2012-04-04T07:00:00Z,30.4367,-88.0117,14.2,2.5,22.37,-9999.0,'1111122,1111122,1111122' 
DISL,ioos:station:DISL:MBLA:1,2012-04-04T07:30:00Z,30.4367,-88.0117,14.2,8.88,2.223,-9999.0,'1111122,1111122,1111122' 
DISL,ioos:station:DISL:MBLA:1,2012-04-04T08:00:00Z,30.4367,-88.0117,14.2,9.25,11.8,-9999.0,'1111122,1111122,1111122' 
DISL,ioos:station:DISL:MBLA:1,2012-04-04T08:30:00Z,30.4367,-88.0117,14.2,9.37,359.5,-9999.0,'1111122,1111122,1111122' 
DISL,ioos:station:DISL:MBLA:1,2012-04-04T09:00:00Z,30.4367,-88.0117,14.2,9.09,243.0,-9999.0,'1111122,1111122,1111122' 
DISL,ioos:station:DISL:MBLA:1,2012-04-04T09:30:00Z,30.4367,-88.0117,14.2,4.93,220.6,-9999.0,'1111122,1111122,1111122' 
DISL,ioos:station:DISL:MBLA:1,2012-04-04T10:00:00Z,30.4367,-88.0117,14.2,8.97,15.09,-9999.0,'1111122,1111122,1111122' 
DISL,ioos:station:DISL:MBLA:1,2012-04-04T10:30:00Z,30.4367,-88.0117,14.2,10.81,347.7,-9999.0,'1111122,1111122,1111122' 
DISL,ioos:station:DISL:MBLA:1,2012-04-04T11:00:00Z,30.4367,-88.0117,14.2,10.09,11.88,-9999.0,'1111122,1111122,1111122' 
DISL,ioos:station:DISL:MBLA:1,2012-04-04T11:30:00Z,30.4367,-88.0117,14.2,8.42,320.7,-9999.0,'1111122,1111122,1111122' 
DISL,ioos:station:DISL:MBLA:1,2012-04-04T12:00:00Z,30.4367,-88.0117,14.2,3.63,288.7,-9999.0,'1111122,1111122,1111122' 
DISL,ioos:station:DISL:MBLA:1,2012-04-04T12:30:00Z,30.4367,-88.0117,14.2,7.82,264.4,-9999.0,'1111122,1111122,1111122' 
DISL,ioos:station:DISL:MBLA:1,2012-04-04T13:00:00Z,30.4367,-88.0117,14.2,5.86,326.5,-9999.0,'1111122,1111122,1111122' 
DISL,ioos:station:DISL:MBLA:1,2012-04-04T13:30:00Z,30.4367,-88.0117,14.2,5.77,3.534,-9999.0,'1111122,1111122,1111122' 
DISL,ioos:station:DISL:MBLA:1,2012-04-04T14:00:00Z,30.4367,-88.0117,14.2,4.56,319.6,-9999.0,'1111122,1111122,1111122' 
DISL,ioos:station:DISL:MBLA:1,2012-04-04T16:30:00Z,30.4367,-88.0117,14.2,6.56,290.8,-9999.0,'1111122,1111122,1111122' 
DISL,ioos:station:DISL:MBLA:1,2012-04-04T17:00:00Z,30.4367,-88.0117,14.2,4.0,316.9,-9999.0,'1111122,1111122,1111122' 
DISL,ioos:station:DISL:MBLA:1,2012-04-04T17:30:00Z,30.4367,-88.0117,14.2,11.33,116.9,-9999.0,'1111122,1111122,1111122' 
DISL,ioos:station:DISL:MBLA:1,2012-04-04T19:30:00Z,30.4367,-88.0117,14.2,11.29,167.8,-9999.0,'1111122,1111122,1111122' 
DISL,ioos:station:DISL:MBLA:1,2012-04-04T20:00:00Z,30.4367,-88.0117,14.2,11.38,176.2,-9999.0,'1111122,1111122,1111122' 
DISL,ioos:station:DISL:MBLA:1,2012-04-04T20:30:00Z,30.4367,-88.0117,14.2,10.23,176.3,-9999.0,'1111122,1111122,1111122' 
DISL,ioos:station:DISL:MBLA:1,2012-04-04T21:00:00Z,30.4367,-88.0117,14.2,9.01,166.6,-9999.0,'1111122,1111122,1111122' 
DISL,ioos:station:DISL:MBLA:1,2012-04-04T21:30:00Z,30.4367,-88.0117,14.2,8.8,163.7,-9999.0,'1111122,1111122,1111122' 
DISL,ioos:station:DISL:MBLA:1,2012-04-04T22:00:00Z,30.4367,-88.0117,14.2,7.63,156.5,-9999.0,'1111122,1111122,1111122' 
DISL,ioos:station:DISL:MBLA:1,2012-04-04T22:30:00Z,30.4367,-88.0117,14.2,7.46,149.2,-9999.0,'1111122,1111122,1111122' 
DISL,ioos:station:DISL:MBLA:1,2012-04-04T23:00:00Z,30.4367,-88.0117,14.2,5.57,150.1,-9999.0,'1111122,1111122,1111122' 
DISL,ioos:station:DISL:MBLA:1,2012-04-04T23:30:00Z,30.4367,-88.0117,14.2,4.87,159.7,-9999.0,'1111122,1111122,1111122' 
DISL,ioos:station:DISL:MBLA:1,2012-04-05T00:00:00Z,30.4367,-88.0117,14.2,4.3,156.3,-9999.0,'1111122,1111122,1111122' 
DISL,ioos:station:DISL:MBLA:1,2012-04-05T00:30:00Z,30.4367,-88.0117,14.2,3.43,149.2,-9999.0,'1111122,1111122,1111122' 
DISL,ioos:station:DISL:MBLA:1,2012-04-05T01:00:00Z,30.4367,-88.0117,14.2,3.02,146.9,-9999.0,'1111122,1111122,1111122' 
DISL,ioos:station:DISL:MBLA:1,2012-04-05T01:30:00Z,30.4367,-88.0117,14.2,2.72,127.5,-9999.0,'1111122,1111122,1111122' 
DISL,ioos:station:DISL:MBLA:1,2012-04-05T02:00:00Z,30.4367,-88.0117,14.2,4.01,81.9,-9999.0,'1111122,1111122,1111122' 
DISL,ioos:station:DISL:MBLA:1,2012-04-05T02:30:00Z,30.4367,-88.0117,14.2,4.38,81.7,-9999.0,'1111122,1111122,1111122' 
DISL,ioos:station:DISL:MBLA:1,2012-04-05T03:00:00Z,30.4367,-88.0117,14.2,4.14,77.88,-9999.0,'1111122,1111122,1111122' 
DISL,ioos:station:DISL:MBLA:1,2012-04-05T03:30:00Z,30.4367,-88.0117,14.2,2.63,82.0,-9999.0,'1111122,1111122,1111122' 
DISL,ioos:station:DISL:MBLA:1,2012-04-05T04:00:00Z,30.4367,-88.0117,14.2,2.91,82.6,-9999.0,'1111122,1111122,1111122' 
DISL,ioos:station:DISL:MBLA:1,2012-04-05T04:30:00Z,30.4367,-88.0117,14.2,3.53,82.5,-9999.0,'1111122,1111122,1111122' 
DISL,ioos:station:DISL:MBLA:1,2012-04-05T05:00:00Z,30.4367,-88.0117,14.2,4.14,86.7,-9999.0,'1111122,1111122,1111122' 
DISL,ioos:station:DISL:MBLA:1,2012-04-05T05:30:00Z,30.4367,-88.0117,14.2,4.4,98.6,-9999.0,'1111122,1111122,1111122' 
DISL,ioos:station:DISL:MBLA:1,2012-04-05T06:00:00Z,30.4367,-88.0117,14.2,4.35,96.2,-9999.0,'1111122,1111122,1111122' 
DISL,ioos:station:DISL:MBLA:1,2012-04-05T06:30:00Z,30.4367,-88.0117,14.2,3.87,87.7,-9999.0,'1111122,1111122,1111122' 
DISL,ioos:station:DISL:MBLA:1,2012-04-05T07:00:00Z,30.4367,-88.0117,14.2,3.17,97.7,-9999.0,'1111122,1111122,1111122' 